Weather History for Crane Lake, MN

Change the Weather History Date:

Wednesday, December 26, 2012

  Actual Average Record
Temperature  
Mean Temperature -6 °F -  
Max Temperature 6 °F 15 °F 44 °F (2003)
Min Temperature -18 °F 0 °F -27 °F (2004)
Degree Days  
Heating Degree Days 71    
Moisture  
Dew Point -9 °F    
Average Humidity 86    
Maximum Humidity 92    
Minimum Humidity 77    
Precipitation  
Precipitation 0.00 in - - ()
Sea Level Pressure  
Sea Level Pressure 30.34 in    
Wind  
Wind Speed 0 mph (NW)    
Max Wind Speed 4 mph    
Max Gust Speed -    
Visibility 9 miles    
Events Snow    
Averages and records for this station are not official NWS values.
T = Trace of Precipitation, MM = Missing Value Source: NWS Daily Summary

Daily Weather History Graph

Daily Weather History Graph

Search for Another Location

Airport:

Trip Planner

Search our weather history database for the weather conditions in past years. The results will help you decide how hot, cold, wet, or windy it might be!

Date:

Astronomy

Dec. 26, 2012 Rise Set
Actual Time 8:00 AM CST 4:21 PM CST
Civil Twilight 7:23 AM CST 4:58 PM CST
Nautical Twilight 6:43 AM CST 5:38 PM CST
Astronomical Twilight 6:05 AM CST 6:16 PM CST
Moon 3:17 PM CST (12/26) 6:21 AM CST (12/26)
Length of Visible Light 9h 34m
Length of Day
8h 21m
Waxing Gibbous, 97% of the Moon is Illuminated
Dec 26
Waxing Gibbous
Dec 28
Full
Jan 4
Last Quarter
Jan 11
New
Jan 18
First Quarter

Hourly Weather History & Observations

Time (CST) Temp. Windchill Dew Point Humidity Pressure Visibility Wind Dir Wind Speed Gust Speed Precip Events Conditions
12:03 AM -16.6 °F - -20.2 °F 84% 30.39 in 10.0 mi Calm Calm - N/A   Clear
12:23 AM -16.6 °F - -20.2 °F 84% 30.38 in 10.0 mi Calm Calm - N/A   Clear
12:43 AM -16.6 °F - -20.2 °F 84% 30.38 in 10.0 mi Calm Calm - N/A   Clear
1:02 AM -16.6 °F - -20.2 °F 84% 30.38 in 10.0 mi Calm Calm - N/A   Clear
1:23 AM -18.4 °F - -20.2 °F 91% 30.38 in 10.0 mi Calm Calm - N/A   Clear
1:42 AM -16.6 °F - -20.2 °F 84% 30.38 in 10.0 mi Calm Calm - N/A   Clear
2:03 AM -16.6 °F - -20.2 °F 84% 30.39 in 10.0 mi Calm Calm - N/A   Clear
2:23 AM -16.6 °F - -20.2 °F 84% 30.39 in 10.0 mi Calm Calm - N/A   Clear
3:02 AM -16.6 °F - -18.4 °F 92% 30.38 in 10.0 mi Calm Calm - N/A   Clear
3:23 AM -14.8 °F - -18.4 °F 84% 30.38 in 10.0 mi Calm Calm - N/A   Clear
3:43 AM -14.8 °F - -18.4 °F 84% 30.38 in 10.0 mi Calm Calm - N/A   Clear
4:03 AM -14.8 °F - -18.4 °F 84% 30.38 in 10.0 mi Calm Calm - N/A   Clear
4:23 AM -14.8 °F - -16.6 °F 92% 30.38 in 10.0 mi Calm Calm - N/A   Clear
4:43 AM -13.0 °F - -16.6 °F 84% 30.37 in 10.0 mi Calm Calm - N/A   Clear
5:03 AM -11.2 °F - -14.8 °F 84% 30.36 in 10.0 mi Calm Calm - N/A   Clear
5:22 AM -11.2 °F - -14.8 °F 84% 30.36 in 10.0 mi Calm Calm - N/A   Clear
5:42 AM -11.2 °F - -14.8 °F 84% 30.37 in 10.0 mi Calm Calm - N/A   Clear
6:03 AM -11.2 °F - -14.8 °F 84% 30.37 in 10.0 mi Calm Calm - N/A   Clear
6:22 AM -9.4 °F - -14.8 °F 77% 30.38 in 10.0 mi Calm Calm - N/A   Clear
6:43 AM -9.4 °F - -13.0 °F 84% 30.38 in 10.0 mi Calm Calm - N/A   Clear
7:03 AM -9.4 °F - -13.0 °F 84% 30.37 in 10.0 mi Calm Calm - N/A   Clear
7:22 AM -9.4 °F - -13.0 °F 84% 30.38 in 10.0 mi Calm Calm - N/A   Clear
7:42 AM -9.4 °F - -13.0 °F 84% 30.38 in 10.0 mi Calm Calm - N/A   Clear
8:02 AM -9.4 °F - -14.8 °F 77% 30.37 in 10.0 mi Calm Calm - N/A   Clear
8:22 AM -9.4 °F - -13.0 °F 84% 30.37 in 10.0 mi Calm Calm - N/A   Clear
8:43 AM -7.6 °F - -11.2 °F 84% 30.37 in 10.0 mi Calm Calm - N/A   Clear
9:03 AM -7.6 °F - -9.4 °F 92% 30.37 in 10.0 mi Calm Calm - N/A   Clear
9:23 AM -5.8 °F - -7.6 °F 92% 30.37 in 10.0 mi Calm Calm - N/A   Clear
9:43 AM -2.2 °F - -5.8 °F 85% 30.36 in 10.0 mi Calm Calm - N/A   Clear
10:02 AM -2.2 °F - -4.0 °F 92% 30.36 in 10.0 mi Calm Calm - N/A   Clear
10:22 AM -0.4 °F - -2.2 °F 92% 30.36 in 10.0 mi Calm Calm - N/A   Clear
10:42 AM 1.4 °F - -2.2 °F 85% 30.35 in 10.0 mi Calm Calm - N/A   Clear
11:02 AM 1.4 °F - -0.4 °F 92% 30.34 in 10.0 mi Calm Calm - N/A   Clear
11:22 AM 3.2 °F - -0.4 °F 85% 30.33 in 10.0 mi Calm Calm - N/A   Clear
11:43 AM 3.2 °F - -0.4 °F 85% 30.32 in 10.0 mi Calm Calm - N/A   Clear
12:03 PM 3.2 °F -4.2 °F 1.4 °F 92% 30.32 in 10.0 mi NW 3.5 mph - N/A   Clear
12:22 PM 5.0 °F - 1.4 °F 85% 30.32 in 10.0 mi Calm Calm - N/A   Clear
12:43 PM 5.0 °F - 1.4 °F 85% 30.31 in 10.0 mi Calm Calm - N/A   Clear
1:02 PM 6.8 °F - 3.2 °F 85% 30.31 in 10.0 mi Calm Calm - N/A   Clear
1:22 PM 6.8 °F - 3.2 °F 85% 30.31 in 10.0 mi Calm Calm - N/A   Clear
1:42 PM 6.8 °F - 3.2 °F 85% 30.30 in 10.0 mi Calm Calm - N/A   Clear
2:02 PM 6.8 °F - 3.2 °F 85% 30.31 in 10.0 mi Calm Calm - N/A   Clear
2:23 PM 6.8 °F - 3.2 °F 85% 30.31 in 10.0 mi Calm Calm - N/A   Scattered Clouds
2:42 PM 6.8 °F - 3.2 °F 85% 30.31 in 10.0 mi Calm Calm - N/A   Mostly Cloudy
3:02 PM 6.8 °F - 3.2 °F 85% 30.31 in 5.0 mi Calm Calm - N/A   Mostly Cloudy
3:22 PM 6.8 °F - 3.2 °F 85% 30.31 in 7.0 mi Calm Calm - N/A   Overcast
3:42 PM 5.0 °F - 3.2 °F 92% 30.31 in 4.0 mi Calm Calm - N/A Snow Light Snow
4:02 PM 5.0 °F - 3.2 °F 92% 30.31 in 4.0 mi Calm Calm - N/A Snow Light Snow
4:23 PM 3.2 °F - 1.4 °F 92% 30.31 in 5.0 mi Calm Calm - N/A   Overcast
4:42 PM 3.2 °F - 1.4 °F 92% 30.31 in 5.0 mi Calm Calm - N/A   Overcast
5:02 PM 1.4 °F - -0.4 °F 92% 30.31 in 4.0 mi Calm Calm - N/A Snow Light Snow
5:23 PM -0.4 °F - -4.0 °F 85% 30.31 in 2.5 mi Calm Calm - N/A Snow Light Snow
5:42 PM -2.2 °F - -5.8 °F 85% 30.31 in 7.0 mi Calm Calm - N/A Snow Light Snow
6:02 PM -4.0 °F - -7.6 °F 85% 30.30 in 7.0 mi Calm Calm - N/A   Scattered Clouds
6:42 PM -5.8 °F - -9.4 °F 84% 30.30 in 10.0 mi Calm Calm - N/A   Clear
7:03 PM -7.6 °F - -9.4 °F 92% 30.30 in 10.0 mi Calm Calm - N/A   Clear
7:22 PM -7.6 °F - -9.4 °F 92% 30.30 in 10.0 mi Calm Calm - N/A   Clear
7:42 PM -7.6 °F - -11.2 °F 84% 30.30 in 10.0 mi Calm Calm - N/A   Clear
8:02 PM -7.6 °F - -11.2 °F 84% 30.30 in 10.0 mi Calm Calm - N/A   Clear
8:22 PM -9.4 °F - -11.2 °F 92% 30.30 in 10.0 mi Calm Calm - N/A   Clear
8:44 PM -9.4 °F - -13.0 °F 84% 30.30 in 10.0 mi Calm Calm - N/A   Clear
9:03 PM -9.4 °F - -13.0 °F 84% 30.30 in 10.0 mi Calm Calm - N/A   Clear
9:22 PM -9.4 °F - -14.8 °F 77% 30.29 in 10.0 mi Calm Calm - N/A   Clear
9:53 PM -5.8 °F - -11.2 °F 77% 30.22 in 10.0 mi Calm Calm - N/A   Clear
10:02 PM -11.2 °F - -14.8 °F 84% 30.30 in 10.0 mi Calm Calm - N/A   Clear
10:22 PM -11.2 °F - -14.8 °F 84% 30.30 in 10.0 mi Calm Calm - N/A   Clear
10:53 PM -7.6 °F - -11.2 °F 84% 30.22 in 10.0 mi Calm Calm - N/A   Clear
11:06 PM -11.2 °F - -16.6 °F 77% 30.30 in 10.0 mi Calm Calm - N/A   Clear
11:22 PM -11.2 °F - -14.8 °F 84% 30.30 in 10.0 mi Calm Calm - N/A   Clear
11:42 PM -11.2 °F - -16.6 °F 77% 30.29 in 10.0 mi Calm Calm - N/A   Clear